Location: *
(51.0333°S, 178.4667°E)
Time: 12:58:13
(UTC+00:00)

Cosmos 1515 - Pass Details

Date: 15 November 2019
Orbit: 506 x 517 km, 82.5° (Epoch: 07 December)

Event Time Altitude Azimuth Distance (km) Brightness Sun altitude
Rises 09:06:11 0° 189° (S) 2,691 8.5 -11.7°
Reaches altitude 10° 09:08:22 10° 187° (S) 1,794 7.4 -11.9°
Maximum altitude 09:12:19 73° 101° (E) 559 3.7 -12.3°
Enters shadow 09:15:03 19° 18° (NNE) 1,310 5.2 -12.6°
